Back to catalog

FENGYUN 1C DEB

AliveSSO
NORAD 30489·DEBRIS·🇨🇳 China

Launched May 10, 1999 from Taiyuan Satellite Launch Center

Loading…

Next Passes (next 24 hours)

TLE

FreshSource: Space-Track

Epoch: Sep 14, 2026, 06:23 UTC

1 30489U 99025AHB 26257.26620398  .00000238  00000-0  12859-3 0  9998
2 30489  98.4634 263.6042 0139255 190.1272 299.8283 14.16098715 12859

Track FENGYUN 1C DEB in real time with AllMySat

Download on the App Store